Showing default

TIANPING 3B-01, 61615

Orbit data source: Space-Track

TIANPING 3B-01, 61615 is a payload satellite owned by ZJUNI-SAT (CN) in SSO that was launched on Tue, 22 Oct 2024 UTC via a CHANG ZHENG 6 launch vehicle from the Taiyaun Space Center, China (TSC). Payload-class satellites include a variety of spacecraft equipped with specific instruments for various scientific and technological missions. These include communications satellites like Starlink; space stations such as the ISS; scientific satellites like the Hubble; Earth observation satellites from companies like Planet Labs, Umbra, and HawkEye 360; GPS; miniature CubeSats for education and research; and military/defense satellites.

Loading next visibility...
Identifier
61615, 2024-189B
Orbit
SSO
Country
Flag of CNCN / PRC
Related business
Manufacturer
CASIC/ZJUNI
Mission
Defense Calibration
Bus & Motor
TP-3, Unknown motor
Mass
200 kg wet, ~200 kg dry
Launch date (UTC)
2024-10-22 (2 years ago)
Launch vehicle
CHANG ZHENG 6
Launch site
Taiyaun Space Center, China (TSC)
Object type
Payload
Rocket body
Debris
Shape & HBR
Box, 0.3 m
Radar Cross Section
0.135 m², Medium (>0.1 m² and < 1m²)

Expand to show TLE details & history
Last TLE update: 8 hours ago

TLE from 8 hours ago
0 TIANPING 3B-01
1 61615U 24189B   26122.98161399  .00002722  00000-0  21787-3 0  9993
2 61615  97.5233 144.5509 0003564 104.8836 255.2784 15.00976031 83664
Epoch: 2026-05-02T23:33Z
TLE epoch observation values (Epoch: 2026-05-02T23:33:31.448Z)
Latitude
0.00003°
Longitude
-69.72185°
Altitude
567.576 km
Speed
7.577 km/s
True Right ascension
09h 38m 12s
True Declination
0° 00' 00"
Sunlit
Object was in daylight at epoch
Visualization orbit readout
Latitude
Unknown
Longitude
Unknown
Altitude
Unknown
Speed
Unknown
Apparent Right ascension
Unknown
Apparent Declination
Unknown
Sunlit
N/A
Visualization observer readout
Local Sidereal Time
14:54:25
Azimuth
Unknown
Elevation
Unknown
Doppler factor
Unknown
Orbital elements
Apogee altitude
563.355 km
Perigee altitude
558.408 km
Semi-major axis
6,939.019 km
Eccentricity
0.00036
Inclination
97.5233°
RAAN
144.5509°
Arg. of periapsis
104.8836°
True anomaly
255.2389°
Mean anomaly
255.2784°
Eccentric anomaly
255.25865°
Mean motion
3.75488 °/min
Orbital period
95.88 mins
BSTAR
0.00021787
Loading maneuver chart data...
Computing Atmospheric mass density...
Loading historical data...
Loading historical data...
Loading historical data...
Loading historical data...
Loading historical data...
Loading historical data...
Loading historical data...
Other satellites on launch #189 in the year 2024 (2024-10-22 UTC)

Documentation

Showing up to 5 results
|